�������l�o���
Date,Time,MP-1(��Sv/h),MP-2(��Sv/h),MP-3(��Sv/h),MP-4(��Sv/h),MP-5(��Sv/h),MP-6(��Sv/h),MP-7(��Sv/h),MP-8(��Sv/h),����,����(m/s),���J
2019/03/24,00:00,0.777,1.150,0.785,1.460,1.055,0.439,0.782,0.739,���k��,6.7,��
2019/03/24,00:10,0.776,1.148,0.786,1.462,1.056,0.440,0.781,0.740,�k��,7.1,��
2019/03/24,00:20,0.776,1.150,0.785,1.462,1.054,0.440,0.781,0.741,�k�k��,4.1,��
2019/03/24,00:30,0.776,1.148,0.788,1.460,1.054,0.439,0.780,0.741,�k,3.1,��
2019/03/24,00:40,0.776,1.148,0.785,1.462,1.056,0.440,0.782,0.741,�k,3.4,��
2019/03/24,00:50,0.776,1.148,0.786,1.461,1.055,0.441,0.780,0.740,�k,3.3,��
2019/03/24,01:00,0.774,1.149,0.784,1.460,1.054,0.441,0.781,0.740,�k�k��,3.4,��
2019/03/24,01:10,0.774,1.149,0.786,1.462,1.056,0.441,0.781,0.743,�k�k��,3.0,��
2019/03/24,01:20,0.775,1.149,0.784,1.462,1.054,0.440,0.781,0.739,�k��,3.1,��
2019/03/24,01:30,0.775,1.147,0.784,1.461,1.057,0.439,0.782,0.741,�k�k��,2.3,��
2019/03/24,01:40,0.775,1.149,0.783,1.461,1.052,0.440,0.779,0.740,��,1.7,��
2019/03/24,01:50,0.773,1.149,0.784,1.463,1.054,0.440,0.782,0.739,-,CALM,��
2019/03/24,02:00,0.775,1.147,0.785,1.461,1.056,0.440,0.781,0.741,��쐼,1.2,��
2019/03/24,02:10,0.775,1.149,0.787,1.464,1.052,0.440,0.781,0.740,��쐼,1.2,��
2019/03/24,02:20,0.776,1.150,0.786,1.463,1.055,0.440,0.779,0.739,�쐼,0.6,��
2019/03/24,02:30,0.774,1.150,0.784,1.463,1.053,0.440,0.780,0.738,��쐼,0.6,��
2019/03/24,02:40,0.774,1.150,0.785,1.463,1.055,0.439,0.781,0.740,�k�k��,1.8,��
2019/03/24,02:50,0.774,1.149,0.784,1.461,1.056,0.440,0.781,0.741,�k�k��,2.8,��
2019/03/24,03:00,0.776,1.149,0.786,1.459,1.053,0.441,0.780,0.739,�k�k��,3.1,��
2019/03/24,03:10,0.775,1.150,0.785,1.462,1.053,0.438,0.780,0.739,�k��,2.9,��
2019/03/24,03:20,0.775,1.148,0.786,1.462,1.056,0.441,0.780,0.741,���k��,2.6,��
2019/03/24,03:30,0.775,1.148,0.785,1.463,1.055,0.438,0.780,0.740,��,3.1,��
2019/03/24,03:40,0.777,1.148,0.784,1.459,1.052,0.440,0.780,0.738,���k��,3.9,��
2019/03/24,03:50,0.775,1.149,0.785,1.461,1.054,0.440,0.778,0.739,���k��,4.5,��
2019/03/24,04:00,0.776,1.148,0.785,1.460,1.054,0.439,0.779,0.742,���k��,4.7,��
2019/03/24,04:10,0.773,1.148,0.786,1.461,1.054,0.439,0.780,0.739,���k��,5.2,��
2019/03/24,04:20,0.775,1.148,0.784,1.462,1.053,0.440,0.779,0.740,���k��,4.6,��
2019/03/24,04:30,0.777,1.149,0.785,1.460,1.052,0.440,0.779,0.739,�k��,2.8,��
2019/03/24,04:40,0.774,1.149,0.786,1.459,1.053,0.440,0.779,0.737,���k��,2.5,��
2019/03/24,04:50,0.774,1.147,0.784,1.461,1.052,0.439,0.779,0.741,�k��,2.3,��
2019/03/24,05:00,0.775,1.148,0.784,1.461,1.053,0.440,0.780,0.738,���k��,1.7,��
2019/03/24,05:10,0.775,1.149,0.786,1.461,1.054,0.440,0.780,0.740,�k��,1.5,��
2019/03/24,05:20,0.775,1.149,0.785,1.460,1.053,0.439,0.780,0.738,���k��,1.1,��
2019/03/24,05:30,0.776,1.147,0.787,1.461,1.055,0.439,0.780,0.738,-,CALM,��
2019/03/24,05:40,0.774,1.148,0.785,1.463,1.055,0.439,0.779,0.739,��쐼,1.8,��
2019/03/24,05:50,0.775,1.149,0.786,1.461,1.055,0.439,0.782,0.739,��,0.9,��
2019/03/24,06:00,0.775,1.149,0.786,1.460,1.053,0.439,0.778,0.740,��쐼,2.0,��
2019/03/24,06:10,0.774,1.148,0.784,1.462,1.054,0.439,0.781,0.738,��쐼,4.8,��
2019/03/24,06:20,0.776,1.148,0.786,1.462,1.054,0.439,0.781,0.739,��,2.6,��
2019/03/24,06:30,0.773,1.148,0.786,1.460,1.055,0.441,0.780,0.739,�쐼,2.6,��
2019/03/24,06:40,0.775,1.148,0.787,1.460,1.051,0.439,0.778,0.742,�쐼,2.9,��
2019/03/24,06:50,0.775,1.146,0.783,1.459,1.054,0.440,0.779,0.740,��쐼,3.5,��
2019/03/24,07:00,0.775,1.147,0.785,1.459,1.055,0.440,0.781,0.740,�쐼,3.0,��
2019/03/24,07:10,0.775,1.148,0.786,1.461,1.053,0.441,0.780,0.739,��쐼,2.6,��
2019/03/24,07:20,0.776,1.149,0.785,1.459,1.054,0.441,0.782,0.739,��,3.8,��
2019/03/24,07:30,0.776,1.149,0.787,1.461,1.053,0.440,0.781,0.740,��,5.2,��
2019/03/24,07:40,0.775,1.149,0.788,1.460,1.054,0.441,0.782,0.740,��,5.2,��
2019/03/24,07:50,0.776,1.152,0.786,1.461,1.054,0.441,0.782,0.740,��,6.5,��
2019/03/24,08:00,0.777,1.149,0.786,1.463,1.055,0.442,0.783,0.741,��쐼,6.3,��
2019/03/24,08:10,0.777,1.150,0.787,1.463,1.055,0.440,0.783,0.742,��,4.9,��
2019/03/24,08:20,0.778,1.149,0.785,1.462,1.056,0.442,0.782,0.740,��,8.0,��
2019/03/24,08:30,0.778,1.150,0.787,1.463,1.056,0.442,0.782,0.740,��,8.1,��
2019/03/24,08:40,0.777,1.151,0.786,1.463,1.056,0.441,0.784,0.742,��,8.4,��
2019/03/24,08:50,0.777,1.150,0.787,1.462,1.055,0.441,0.781,0.741,���k��,9.8,��
2019/03/24,09:00,0.776,1.149,0.788,1.465,1.056,0.441,0.783,0.740,���k��,7.5,��
2019/03/24,09:10,0.779,1.150,0.788,1.465,1.057,0.441,0.782,0.742,��,5.2,��
2019/03/24,09:20,0.778,1.152,0.786,1.463,1.055,0.443,0.780,0.742,��,4.3,��
2019/03/24,09:30,0.778,1.149,0.788,1.466,1.057,0.444,0.780,0.742,�k��,4.3,��
2019/03/24,09:40,0.779,1.148,0.788,1.465,1.057,0.444,0.783,0.742,�k��,3.4,��
2019/03/24,09:50,0.778,1.153,0.787,1.462,1.056,0.442,0.781,0.740,���k��,5.9,��
2019/03/24,10:00,0.780,1.152,0.788,1.466,1.058,0.444,0.782,0.741,���k��,13.5,��
2019/03/24,10:10,0.780,1.150,0.788,1.463,1.057,0.442,0.783,0.740,���k��,13.5,��
2019/03/24,10:20,0.781,1.149,0.789,1.463,1.057,0.444,0.781,0.739,���k��,14.2,��
2019/03/24,10:30,0.776,1.152,0.789,1.463,1.057,0.443,0.782,0.740,���k��,10.5,��
2019/03/24,10:40,0.778,1.147,0.788,1.467,1.060,0.442,0.781,0.738,���k��,8.9,��
2019/03/24,10:50,0.781,1.151,0.788,1.464,1.057,0.443,0.781,0.740,�k�k��,10.5,��
2019/03/24,11:00,0.779,1.151,0.790,1.465,1.058,0.441,0.781,0.739,�k��,9.6,��
2019/03/24,11:10,0.780,1.152,0.789,1.466,1.059,0.440,0.782,0.739,�k��,5.6,��
2019/03/24,11:20,0.778,1.154,0.790,1.467,1.058,0.441,0.780,0.739,���k��,8.3,��
2019/03/24,11:30,0.779,1.153,0.789,1.468,1.057,0.441,0.780,0.738,�k��,5.7,��
2019/03/24,11:40,0.780,1.153,0.791,1.464,1.058,0.442,0.781,0.740,�k�k��,5.2,��
2019/03/24,11:50,0.780,1.155,0.790,1.466,1.058,0.443,0.782,0.740,�k�k��,4.8,��
2019/03/24,12:00,0.780,1.154,0.789,1.466,1.060,0.443,0.782,0.740,�k�k��,5.8,��
2019/03/24,12:10,0.777,1.151,0.789,1.467,1.058,0.442,0.782,0.740,�k�k��,6.5,��
2019/03/24,12:20,0.779,1.154,0.788,1.469,1.058,0.442,0.782,0.740,���k��,11.0,��
2019/03/24,12:30,0.781,1.152,0.788,1.465,1.057,0.440,0.781,0.739,�k��,5.5,��
2019/03/24,12:40,0.780,1.152,0.792,1.469,1.058,0.443,0.781,0.739,�k�k��,7.2,��
2019/03/24,12:50,0.782,1.151,0.788,1.470,1.059,0.441,0.782,0.741,�k�k��,5.6,��
2019/03/24,13:00,0.782,1.152,0.789,1.468,1.061,0.443,0.783,0.743,�k,3.6,��
2019/03/24,13:10,0.780,1.153,0.790,1.467,1.059,0.442,0.781,0.741,�k�k��,4.5,��
2019/03/24,13:20,0.782,1.153,0.788,1.465,1.058,0.443,0.782,0.739,�k�k��,4.4,��
2019/03/24,13:30,0.782,1.151,0.791,1.466,1.060,0.443,0.783,0.739,�k��,6.3,��
2019/03/24,13:40,0.782,1.155,0.791,1.469,1.061,0.444,0.781,0.737,�k�k��,6.3,��
2019/03/24,13:50,0.782,1.156,0.792,1.466,1.061,0.442,0.782,0.738,�k��,3.8,��
2019/03/24,14:00,0.782,1.156,0.792,1.470,1.061,0.442,0.782,0.738,���k��,3.3,��
2019/03/24,14:10,0.780,1.155,0.792,1.468,1.059,0.443,0.781,0.739,���k��,4.5,��
2019/03/24,14:20,0.780,1.158,0.792,1.467,1.060,0.441,0.783,0.740,��,7.8,��
2019/03/24,14:30,0.779,1.156,0.791,1.467,1.059,0.442,0.781,0.740,��,8.1,��
2019/03/24,14:40,0.781,1.157,0.789,1.468,1.062,0.442,0.783,0.738,��,9.4,��
2019/03/24,14:50,0.780,1.156,0.790,1.467,1.059,0.442,0.782,0.738,���쐼,8.5,��
2019/03/24,15:00,0.779,1.155,0.790,1.468,1.060,0.442,0.783,0.739,���쐼,11.6,��
2019/03/24,15:10,0.778,1.155,0.789,1.470,1.060,0.441,0.780,0.738,���쐼,10.2,��
2019/03/24,15:20,0.779,1.156,0.789,1.466,1.059,0.443,0.782,0.738,��,8.6,��
2019/03/24,15:30,0.777,1.156,0.788,1.468,1.059,0.443,0.781,0.740,��,9.6,��
2019/03/24,15:40,0.781,1.153,0.789,1.470,1.061,0.443,0.781,0.737,��,8.9,��
2019/03/24,15:50,0.780,1.154,0.791,1.471,1.060,0.442,0.782,0.738,��,8.5,��
2019/03/24,16:00,0.780,1.155,0.789,1.466,1.059,0.441,0.781,0.740,��,10.0,��
2019/03/24,16:10,0.779,1.154,0.790,1.470,1.059,0.443,0.780,0.741,��,8.5,��
2019/03/24,16:20,0.779,1.154,0.788,1.468,1.062,0.445,0.780,0.742,���쐼,9.0,��
2019/03/24,16:30,0.781,1.156,0.791,1.468,1.062,0.443,0.781,0.741,���쐼,9.8,��
2019/03/24,16:40,0.781,1.153,0.788,1.469,1.061,0.443,0.780,0.741,���쐼,10.5,��
2019/03/24,16:50,0.780,1.154,0.791,1.468,1.061,0.443,0.781,0.741,���쐼,8.5,��
2019/03/24,17:00,0.779,1.156,0.791,1.467,1.061,0.443,0.779,0.740,��,10.2,��
2019/03/24,17:10,0.779,1.155,0.790,1.467,1.059,0.442,0.781,0.742,��,7.7,��
2019/03/24,17:20,0.779,1.154,0.790,1.466,1.057,0.443,0.779,0.741,��,8.5,��
2019/03/24,17:30,0.780,1.155,0.790,1.467,1.061,0.442,0.781,0.740,��,9.4,��
2019/03/24,17:40,0.780,1.152,0.790,1.468,1.059,0.441,0.781,0.741,��,9.5,��
2019/03/24,17:50,0.780,1.154,0.789,1.468,1.061,0.442,0.782,0.741,��,9.4,��
2019/03/24,18:00,0.782,1.152,0.788,1.468,1.061,0.443,0.782,0.740,��,7.9,��
2019/03/24,18:10,0.780,1.155,0.789,1.468,1.062,0.444,0.782,0.741,��,10.3,��
2019/03/24,18:20,0.780,1.156,0.790,1.470,1.062,0.443,0.784,0.740,��,9.5,��
2019/03/24,18:30,0.781,1.156,0.787,1.469,1.062,0.442,0.783,0.739,��,9.8,��
2019/03/24,18:40,0.778,1.155,0.789,1.467,1.064,0.441,0.781,0.742,���k��,10.3,��
2019/03/24,18:50,0.781,1.151,0.787,1.465,1.062,0.442,0.783,0.740,��,8.7,��
2019/03/24,19:00,0.778,1.153,0.788,1.466,1.062,0.442,0.782,0.741,���k��,10.3,��
2019/03/24,19:10,0.779,1.153,0.788,1.466,1.063,0.442,0.782,0.741,���k��,8.5,��
2019/03/24,19:20,0.779,1.154,0.787,1.467,1.060,0.443,0.783,0.741,���k��,6.3,��
2019/03/24,19:30,0.780,1.154,0.790,1.470,1.061,0.441,0.785,0.741,���k��,6.0,��
2019/03/24,19:40,0.779,1.154,0.789,1.469,1.064,0.441,0.781,0.740,���k��,5.1,��
2019/03/24,19:50,0.779,1.156,0.789,1.467,1.061,0.442,0.781,0.742,�k��,3.6,��
2019/03/24,20:00,0.777,1.153,0.788,1.466,1.060,0.442,0.781,0.741,�k�k��,1.5,��
2019/03/24,20:10,0.779,1.153,0.789,1.467,1.062,0.440,0.781,0.739,�k��,2.0,��
2019/03/24,20:20,0.776,1.155,0.789,1.468,1.061,0.440,0.783,0.741,�k��,2.6,��
2019/03/24,20:30,0.778,1.154,0.788,1.464,1.061,0.441,0.781,0.742,�k�k��,2.0,��
2019/03/24,20:40,0.778,1.153,0.787,1.467,1.060,0.440,0.783,0.740,�k��,1.2,��
2019/03/24,20:50,0.779,1.152,0.788,1.468,1.063,0.441,0.780,0.740,���k��,1.1,��
2019/03/24,21:00,0.778,1.152,0.786,1.467,1.061,0.440,0.781,0.740,��,1.4,��
2019/03/24,21:10,0.779,1.154,0.789,1.464,1.060,0.440,0.782,0.740,���k��,1.9,��
2019/03/24,21:20,0.780,1.152,0.787,1.465,1.061,0.441,0.782,0.741,���k��,5.1,��
2019/03/24,21:30,0.776,1.154,0.787,1.465,1.062,0.442,0.779,0.740,���k��,7.2,��
2019/03/24,21:40,0.778,1.153,0.788,1.468,1.061,0.441,0.782,0.740,�k��,7.8,��
2019/03/24,21:50,0.777,1.155,0.789,1.466,1.060,0.440,0.783,0.738,�k��,6.4,��
2019/03/24,22:00,0.776,1.154,0.788,1.467,1.061,0.440,0.782,0.741,�k�k��,2.0,��
2019/03/24,22:10,0.776,1.152,0.787,1.466,1.059,0.441,0.782,0.741,�k�k��,1.4,��
2019/03/24,22:20,0.778,1.153,0.786,1.467,1.060,0.440,0.780,0.741,�k,4.0,��
2019/03/24,22:30,0.777,1.154,0.789,1.467,1.061,0.441,0.781,0.740,�k�k��,4.4,��
2019/03/24,22:40,0.776,1.155,0.789,1.466,1.060,0.440,0.781,0.740,�k�k��,4.2,��
2019/03/24,22:50,0.777,1.152,0.787,1.468,1.059,0.439,0.781,0.741,�k�k��,4.3,��
2019/03/24,23:00,0.776,1.154,0.789,1.468,1.059,0.440,0.780,0.740,�k�k��,5.9,��
2019/03/24,23:10,0.778,1.153,0.790,1.465,1.060,0.440,0.781,0.740,�k,6.7,��
2019/03/24,23:20,0.777,1.154,0.788,1.468,1.058,0.440,0.781,0.741,�k�k��,7.0,��
2019/03/24,23:30,0.776,1.154,0.789,1.467,1.061,0.440,0.779,0.741,�k,6.0,��
2019/03/24,23:40,0.776,1.153,0.788,1.465,1.061,0.437,0.780,0.740,�k,6.2,��
2019/03/24,23:50,0.777,1.151,0.786,1.468,1.060,0.440,0.781,0.741,�k�k��,7.5,��
